Weather History for Ortonville, MN

Change the Weather History Date:

Wednesday, December 12, 2012

  Actual Average (KAQP) Record (KAQP)
Temperature  
Mean Temperature 18 °F -  
Max Temperature 30 °F 27 °F 51 °F (1998)
Min Temperature 5 °F 12 °F -18 °F (2000)
Degree Days  
Heating Degree Days 48    
Moisture  
Dew Point 13 °F    
Average Humidity 83    
Maximum Humidity 93    
Minimum Humidity 69    
Precipitation  
Precipitation 0.00 in - - ()
Sea Level Pressure  
Sea Level Pressure 29.79 in    
Wind  
Wind Speed 6 mph (SE)    
Max Wind Speed 12 mph    
Max Gust Speed -    
Visibility 9 miles    
Events Snow    
Averages and records for this station are not official NWS values.
T = Trace of Precipitation, MM = Missing Value Source: NWS Daily Summary

Daily Weather History Graph

Daily Weather History Graph

Search for Another Location

Airport:

Trip Planner

Search our weather history database for the weather conditions in past years. The results will help you decide how hot, cold, wet, or windy it might be!

Date:

Astronomy

Dec. 12, 2012 Rise Set
Actual Time 7:56 AM CST 4:43 PM CST
Civil Twilight 7:22 AM CST 5:17 PM CST
Nautical Twilight 6:44 AM CST 5:54 PM CST
Astronomical Twilight 6:09 AM CST 6:30 PM CST
Moon 7:00 AM CST (12/12) 4:22 PM CST (12/12)
Length of Visible Light 9h 54m
Length of Day
8h 46m
Waning Crescent, 1% of the Moon is Illuminated
Dec 12
Waning Crescent
Dec 13
New
Dec 19
First Quarter
Dec 28
Full
Jan 4
Last Quarter

Hourly Weather History & Observations

Time (CST) Temp. Windchill Dew Point Humidity Pressure Visibility Wind Dir Wind Speed Gust Speed Precip Events Conditions
12:13 AM 5.0 °F -9.1 °F 1.4 °F 85% 29.88 in 10.0 mi SE 9.2 mph - N/A   Overcast
12:34 AM 6.8 °F -7.8 °F 1.4 °F 79% 29.87 in 10.0 mi SE 10.4 mph - N/A   Overcast
12:54 AM 6.8 °F -6.9 °F 3.2 °F 85% 29.86 in 10.0 mi SE 9.2 mph - N/A   Overcast
1:14 AM 6.8 °F -8.6 °F 3.2 °F 85% 29.84 in 7.0 mi SE 11.5 mph - N/A   Overcast
1:33 AM 8.6 °F -5.5 °F 3.2 °F 79% 29.83 in 4.0 mi SE 10.4 mph - N/A Snow Light Snow
1:54 AM 8.6 °F -4.7 °F 3.2 °F 79% 29.83 in 5.0 mi SE 9.2 mph - N/A Snow Light Snow
2:14 AM 8.6 °F -5.5 °F 5.0 °F 85% 29.83 in 5.0 mi SE 10.4 mph - N/A Snow Light Snow
2:33 AM 8.6 °F -6.3 °F 6.8 °F 92% 29.82 in 7.0 mi SE 11.5 mph - N/A Snow Light Snow
2:54 AM 10.4 °F -4.1 °F 6.8 °F 85% 29.81 in 7.0 mi SE 11.5 mph - N/A   Overcast
3:14 AM 10.4 °F -4.1 °F 6.8 °F 85% 29.80 in 7.0 mi SE 11.5 mph - N/A   Overcast
3:34 AM 10.4 °F -4.1 °F 6.8 °F 85% 29.78 in 7.0 mi SE 11.5 mph - N/A   Overcast
3:54 AM 10.4 °F -0.4 °F 6.8 °F 85% 29.78 in 7.0 mi SSE 6.9 mph - N/A   Overcast
4:13 AM 10.4 °F -1.5 °F 6.8 °F 85% 29.78 in 7.0 mi SSE 8.1 mph - N/A   Overcast
4:34 AM 8.6 °F -3.7 °F 5.0 °F 85% 29.78 in 7.0 mi South 8.1 mph - N/A   Mostly Cloudy
4:53 AM 8.6 °F -1.3 °F 5.0 °F 85% 29.76 in 7.0 mi SSE 5.8 mph - N/A   Mostly Cloudy
5:14 AM 8.6 °F -3.7 °F 3.2 °F 79% 29.76 in 7.0 mi SSE 8.1 mph - N/A   Scattered Clouds
5:34 AM 6.8 °F -3.5 °F 3.2 °F 85% 29.75 in 7.0 mi SSE 5.8 mph - N/A   Clear
5:53 AM 6.8 °F -2.0 °F 3.2 °F 85% 29.75 in 7.0 mi South 4.6 mph - N/A   Clear
6:14 AM 6.8 °F -2.0 °F 3.2 °F 85% 29.75 in 7.0 mi South 4.6 mph - N/A   Clear
6:34 AM 6.8 °F -3.5 °F 3.2 °F 85% 29.75 in 7.0 mi SSE 5.8 mph - N/A   Clear
6:53 AM 8.6 °F 0.1 °F 3.2 °F 79% 29.75 in 7.0 mi SE 4.6 mph - N/A   Clear
7:14 AM 8.6 °F -1.3 °F 5.0 °F 85% 29.74 in 7.0 mi SE 5.8 mph - N/A   Clear
7:34 AM 8.6 °F 0.1 °F 5.0 °F 85% 29.73 in 7.0 mi SE 4.6 mph - N/A   Clear
7:54 AM 8.6 °F -2.6 °F 6.8 °F 92% 29.73 in 7.0 mi SE 6.9 mph - N/A   Clear
8:14 AM 8.6 °F -1.3 °F 5.0 °F 85% 29.72 in 7.0 mi SE 5.8 mph - N/A   Clear
8:33 AM 8.6 °F -2.6 °F 5.0 °F 85% 29.73 in 7.0 mi SE 6.9 mph - N/A   Clear
8:54 AM 10.4 °F 4.0 °F 6.8 °F 85% 29.73 in 7.0 mi SE 3.5 mph - N/A   Clear
9:13 AM 10.4 °F 2.2 °F 8.6 °F 92% 29.72 in 7.0 mi SE 4.6 mph - N/A   Clear
9:34 AM 12.2 °F 1.7 °F 10.4 °F 92% 29.73 in 10.0 mi SE 6.9 mph - N/A   Clear
9:54 AM 15.8 °F 5.1 °F 12.2 °F 86% 29.73 in 10.0 mi SE 8.1 mph - N/A   Clear
10:14 AM 15.8 °F 7.2 °F 14.0 °F 93% 29.74 in 10.0 mi SSE 5.8 mph - N/A   Clear
10:34 AM 17.6 °F 12.3 °F 14.0 °F 86% 29.75 in 10.0 mi SSE 3.5 mph - N/A   Clear
10:53 AM 19.4 °F 12.8 °F 14.0 °F 80% 29.75 in 10.0 mi SSE 4.6 mph - N/A   Clear
11:14 AM 19.4 °F 10.4 °F 15.8 °F 86% 29.74 in 10.0 mi SE 6.9 mph - N/A   Clear
11:34 AM 21.2 °F 14.9 °F 15.8 °F 80% 29.74 in 10.0 mi SSE 4.6 mph - N/A   Clear
11:54 AM 21.2 °F 13.6 °F 15.8 °F 80% 29.73 in 10.0 mi SE 5.8 mph - N/A   Clear
12:14 PM 23.0 °F - 15.8 °F 74% 29.74 in 10.0 mi Calm Calm - N/A   Clear
12:34 PM 24.8 °F 20.5 °F 17.6 °F 74% 29.73 in 10.0 mi SE 3.5 mph - N/A   Clear
12:54 PM 26.6 °F 22.6 °F 17.6 °F 69% 29.73 in 10.0 mi SE 3.5 mph - N/A   Clear
1:14 PM 26.6 °F - 19.4 °F 74% 29.73 in 10.0 mi Calm Calm - N/A   Clear
1:34 PM 28.4 °F - 19.4 °F 69% 29.74 in 10.0 mi Calm Calm - N/A   Clear
1:54 PM 28.4 °F - 19.4 °F 69% 29.74 in 10.0 mi Calm Calm - N/A   Clear
2:13 PM 28.4 °F - 21.2 °F 74% 29.73 in 10.0 mi Calm Calm - N/A   Clear
2:34 PM 28.4 °F - 21.2 °F 74% 29.74 in 10.0 mi Calm Calm - N/A   Clear
2:53 PM 28.4 °F - 21.2 °F 74% 29.75 in 10.0 mi Calm Calm - N/A   Scattered Clouds
3:14 PM 30.2 °F - 21.2 °F 69% 29.76 in 10.0 mi Calm Calm - N/A   Scattered Clouds
3:34 PM 30.2 °F - 23.0 °F 75% 29.77 in 10.0 mi Calm Calm - N/A   Scattered Clouds
3:54 PM 30.2 °F - 23.0 °F 75% 29.77 in 10.0 mi Calm Calm - N/A   Scattered Clouds
4:13 PM 30.2 °F - 24.8 °F 80% 29.78 in 10.0 mi Calm Calm - N/A   Mostly Cloudy
4:34 PM 30.2 °F - 24.8 °F 80% 29.79 in 10.0 mi Calm Calm - N/A   Overcast
4:53 PM 30.2 °F - 24.8 °F 80% 29.80 in 10.0 mi Calm Calm - N/A   Overcast
5:14 PM 28.4 °F - 24.8 °F 86% 29.80 in 10.0 mi Calm Calm - N/A   Mostly Cloudy
5:33 PM 28.4 °F - 23.0 °F 80% 29.81 in 10.0 mi Calm Calm - N/A   Scattered Clouds
5:54 PM 28.4 °F - 23.0 °F 80% 29.80 in 10.0 mi Calm Calm - N/A   Clear
6:14 PM 26.6 °F - 21.2 °F 80% 29.81 in 10.0 mi Calm Calm - N/A   Clear
6:33 PM 24.8 °F - 21.2 °F 86% 29.82 in 10.0 mi Calm Calm - N/A   Clear
6:54 PM 24.8 °F - 21.2 °F 86% 29.83 in 10.0 mi Calm Calm - N/A   Clear
7:14 PM 23.0 °F - 19.4 °F 86% 29.83 in 10.0 mi Calm Calm - N/A   Clear
7:34 PM 23.0 °F - 19.4 °F 86% 29.83 in 10.0 mi Calm Calm - N/A   Clear
7:54 PM 23.0 °F - 19.4 °F 86% 29.84 in 10.0 mi Calm Calm - N/A   Clear
8:13 PM 24.8 °F - 19.4 °F 80% 29.84 in 10.0 mi Calm Calm - N/A   Clear
8:34 PM 24.8 °F - 19.4 °F 80% 29.84 in 10.0 mi Calm Calm - N/A   Clear
8:54 PM 21.2 °F - 19.4 °F 93% 29.85 in 10.0 mi Calm Calm - N/A   Clear
9:14 PM 19.4 °F - 17.6 °F 93% 29.86 in 10.0 mi Calm Calm - N/A   Clear
9:34 PM 21.2 °F 10.9 °F 17.6 °F 86% 29.86 in 10.0 mi North 9.2 mph - N/A   Clear
9:53 PM 21.2 °F 11.7 °F 17.6 °F 86% 29.86 in 10.0 mi North 8.1 mph - N/A   Clear
10:14 PM 21.2 °F 11.7 °F 17.6 °F 86% 29.86 in 10.0 mi North 8.1 mph - N/A   Clear
10:34 PM 21.2 °F 12.6 °F 17.6 °F 86% 29.88 in 10.0 mi North 6.9 mph - N/A   Clear
10:54 PM 21.2 °F 12.6 °F 17.6 °F 86% 29.88 in 10.0 mi North 6.9 mph - N/A   Clear
11:14 PM 19.4 °F 8.6 °F 15.8 °F 86% 29.88 in 7.0 mi North 9.2 mph - N/A   Clear
11:33 PM 19.4 °F 7.9 °F 17.6 °F 93% 29.88 in 7.0 mi North 10.4 mph - N/A   Clear
11:54 PM 19.4 °F 10.4 °F 15.8 °F 86% 29.88 in 7.0 mi North 6.9 mph - N/A   Mostly Cloudy